Location: Koussan�
(15.2012°N, 12.5548°W)
Time: 12:12:04
(UTC+00:00)

Cosmos 1697 Rocket - Pass Details

Date: 20 October 2020
Orbit: 831 x 845 km, 71.0° (Epoch: 26 November)

Event Time Altitude Azimuth Distance (km) Brightness Sun altitude
Rises 19:22:10 0° 168° (SSE) 3,362 5.8 -14.1°
Reaches altitude 10° 19:25:04 10° 154° (SSE) 2,429 4.9 -14.8°
Maximum altitude 19:29:22 23° 103° (ESE) 1,691 3.7 -15.8°
Enters shadow 19:29:36 23° 99° (E) 1,694 3.7 -15.8°
